COOK1: Arkansas River Nr Coolidge, KS

                                SHEF ID:       COOK1     ARKANSAS R NR COOLIDGE, KS
STATION TYPE:
Regulating: Stage = 8.00, Flow = 2050

PRECIP STAGE STAGE(2) RIV-FLOW WTR-TEMP CONDUCT BAT-LOAD
in ft ft cfs F umho/cm volt
Ccp-Rev Ccp-Rev Ccp-Rev Ccp-Rev Ccp-Rev Ccp-Rev Ccp-Rev
(America/Chicago)
06/30 00:00 0.00 2.34 2.47 41 74.28 6485 12.95
06/30 01:00 0.00 2.32 2.46 40 72.95 6509 12.95
06/30 02:00 0.00 2.33 2.47 41 71.71 6525 12.89
06/30 03:00 0.00 2.34 2.45 41 70.41 6536 12.89
06/30 04:00 0.00 2.33 2.47 41 69.42 6541 12.89
06/30 05:00 0.00 2.36 2.48 43 68.92 6527 12.89
06/30 06:00 0.03 2.36 2.49 43 68.20 6512 12.83
06/30 07:00 0.04 2.36 2.50 43 67.60 6440 12.83
06/30 08:00 0.03 2.36 2.48 43 67.05 6347 12.77
06/30 09:00 0.12 2.37 2.51 44 66.65 6271 12.77
06/30 10:00 0.08 2.38 2.52 44 66.54 6251 12.83
06/30 11:00 0.00 2.38 2.51 44 66.54 6253 13.00
06/30 12:00 0.00 2.39 2.51 45 66.72 6277 13.07
06/30 13:00 0.00 2.37 2.52 44 68.34 6293 13.48
06/30 14:00 0.00 2.37 2.53 44 71.83 6295 13.65
06/30 15:00 0.00 2.39 2.52 45 72.81 6287 13.65
06/30 16:00 0.00 2.39 2.51 45 74.28 6286 13.65
06/30 17:00 0.00 2.39 2.53 45 75.09 6277 13.77
06/30 18:00 0.00 2.39 2.53 45 75.54 6266 13.53
06/30 19:00 0.00 2.40 2.53 46 76.68 6262 13.30
06/30 20:00 0.00 2.39 2.52 45 75.88 6250 13.24
06/30 21:00 0.00 2.38 2.53 44 74.75 6244 13.12
06/30 22:00 0.00 2.38 2.51 44 73.71 6253 13.07
06/30 23:00 ---- ---- ---- ---- ---- ---- ----
Data processed at Mon 01Jul2024 04:30 GMT

Parsing this webpage?

Checkout our new Data API! CWMSDataAPI (CDA)

Timeseries IDs (TSIDs)

TSIDs used from left to right in the data table
COOL.Precip-Inc.Total.1Hour.1Hour.Ccp-Rev
COOL.Stage.Inst.1Hour.0.Ccp-Rev
COOL.Stage-Alt.Inst.1Hour.0.Ccp-Rev
COOL.Flow.Inst.1Hour.0.Ccp-Rev
COOL.Temp-Water.Inst.1Hour.0.Ccp-Rev
COOL.Cond.Inst.1Hour.0.Ccp-Rev
COOL.Volt-Battery Load.Inst.1Hour.0.Ccp-Rev

                            

All information presented herein is the property of the government of the United States of America and may be revised or deleted at any time without prior notice. Dissemination of this information without the expressed written consent of the Public Affairs Office, Tulsa District U.S. Army Corps of Engineers is strictly prohibited. These data are gathered electronically and, as presented, have NOT undergone any form of quality control. These data are NOT guaranteed to be valid or correct.